Vertical_Velocity
-1 -1 -1 -1 -1 -1 -2 -2 -2 -1 -1 -0 -0 -0 -0 0 0 0 1 1 1 1 1 1 1 1 1 2 1 1 1 1 1 1 1 1 1 1 1 1 1 1 0 0 0 0 0 0 0 0 1 1 1 1 0 -0 -0 -0 0 0 0 0 0 0 0 -0 -1 -1 -1
-0 -0 -1 -1 -1 -1 -1 -1 -1 -1 -0 -0 -0 0 0 1 1 1 2 2 2 2 1 1 1 1 1 1 1 1 1 1 1 1 1 1 1 1 1 0 0 0 0 0 0 0 0 0 0 1 1 1 1 1 1 0 1 1 1 1 1 1 1 1 1 0 -0 -0 -1
0 -0 -1 -1 -1 -1 -1 -1 -1 -0 -0 -0 0 0 1 1 2 2 2 2 1 1 1 1 1 1 1 1 1 1 1 1 1 1 1 1 1 1 1 0 0 0 0 0 0 0 0 0 0 1 1 1 1 1 0 -0 -0 0 0 0 -0 0 0 0 0 0 0 0 -0
-0 -1 -1 -2 -1 -1 -1 -1 -0 -0 -0 0 1 1 2 2 2 2 2 1 1 1 1 1 1 1 1 1 1 1 1 1 1 1 1 1 1 1 1 1 1 0 1 1 1 1 1 1 0 0 0 0 0 -0 -1 -1 -1 -1 -1 -1 -1 -1 -1 -1 -0 -0 -0 -0 -0
-1 -1 -1 -1 -1 -0 -0 -0 -0 -0 0 1 2 2 2 2 2 1 1 1 0 0 0 0 0 0 0 1 1 0 0 1 0 1 1 1 1 1 1 1 1 1 1 1 1 1 1 1 0 -0 -0 -0 -0 -0 -1 -1 -1 -2 -2 -2 -1 -1 -1 -1 -1 -1 -1 -1 -1
-1 -1 -1 -0 0 0 0 0 0 1 1 2 2 2 2 2 1 1 0 -0 -0 -0 -0 0 -0 0 0 0 0 0 0 0 1 1 1 1 1 1 1 1 1 1 1 1 1 0 0 0 -0 -0 -1 -0 -0 -0 -1 -1 -1 -1 -1 -2 -2 -2 -1 -2 -2 -2 -2 -2 -2
-1 -0 0 1 1 1 1 1 1 2 2 2 2 2 1 1 1 0 -0 -0 -0 -0 -0 -0 -0 -0 -0 -0 -0 0 0 0 0 1 1 1 1 1 1 1 1 1 1 0 0 -0 -0 -0 -0 -1 -1 -1 -1 -1 -1 -1 -1 -1 -1 -2 -2 -1 -1 -2 -2 -2 -2 -2 -2
0 1 1 1 1 1 1 1 2 2 2 2 1 1 1 0 0 -0 -0 -0 -1 -1 -1 -1 -0 -0 -0 -0 -0 -0 -0 0 0 0 1 1 1 1 0 0 0 0 0 0 0 -0 -0 -1 -0 -0 -1 -1 -1 -1 -1 -1 -1 -1 -1 -1 -2 -2 -1 -1 -1 -1 -1 -2 -2
1 1 1 1 1 1 1 1 1 1 1 1 1 1 1 0 -0 -0 -0 -1 -1 -1 -1 -1 -1 -1 -0 -0 -0 -0 -0 0 0 0 0 0 0 -0 -0 -0 -0 -0 -0 -0 -0 -0 -0 -0 -0 -0 -0 -0 -0 -1 -1 -1 -1 -1 -1 -1 -2 -2 -2 -2 -1 -1 -1 -1 -2
1 1 1 1 1 1 1 1 1 1 1 1 1 0 0 -0 -0 -0 -1 -1 -1 -1 -1 -1 -0 -0 -0 -0 -0 -0 -0 -0 -0 -0 -0 -0 -0 -0 -1 -1 -1 -1 -1 -1 -1 -1 -1 -1 -1 -1 -1 -0 -0 -0 -0 -0 -0 -1 -1 -1 -1 -2 -3 -3 -2 -2 -2 -2 -2
1 1 1 1 1 1 1 1 1 1 1 0 0 0 -0 -0 -0 -1 -1 -1 -1 -1 -1 -0 -0 -0 -0 0 0 0 -0 -0 -0 -0 -1 -1 -1 -1 -1 -1 -1 -1 -1 -2 -1 -1 -1 -1 -2 -2 -2 -1 -1 -1 -1 -1 -1 -1 -2 -2 -2 -2 -2 -3 -3 -2 -2 -2 -2
1 1 1 1 1 1 0 0 0 0 -0 -0 -0 -0 -1 -1 -1 -1 -1 -0 -0 -0 -0 0 0 0 0 0 0 0 0 -0 -0 -0 -0 -1 -1 -1 -1 -1 -1 -1 -1 -1 -1 -1 -1 -2 -2 -2 -2 -2 -2 -1 -1 -1 -1 -1 -2 -2 -2 -2 -2 -3 -3 -3 -2 -2 -1
1 1 1 1 0 0 0 -0 -0 -0 -0 -1 -1 -1 -1 -1 -1 -0 -0 -0 0 0 1 1 1 1 1 0 0 0 0 0 0 -0 -0 -0 -0 -1 -1 -1 -1 -1 -1 -1 -1 -1 -1 -1 -2 -2 -2 -2 -2 -1 -1 -0 -1 -1 -1 -2 -2 -2 -2 -3 -3 -3 -2 -2 -1
1 1 0 0 0 -0 -0 -1 -1 -1 -1 -1 -1 -1 -1 -1 -0 0 1 1 1 1 1 1 1 1 1 1 0 0 0 0 0 -0 -0 -0 -0 -0 -0 -1 -1 -1 -1 -1 -1 -0 -0 -0 -0 -0 -0 -0 -1 -0 -0 -0 -0 -0 -0 -1 -1 -1 -2 -2 -2 -2 -2 -1 -1
0 0 0 -0 -0 -1 -1 -1 -1 -1 -1 -1 -1 -0 -0 0 1 1 1 1 1 1 1 1 1 1 1 1 1 0 0 0 -0 -0 -0 -0 -0 -0 -0 -0 -0 -0 -0 -0 -0 0 1 1 1 1 1 1 0 0 -0 -0 -0 -0 -0 -0 -0 -0 -1 -1 -1 -1 -1 -0 -0
-0 -0 -0 -0 -1 -1 -1 -1 -1 -1 -0 -0 0 1 1 1 1 1 1 1 1 1 1 1 1 1 1 1 1 1 0 0 -0 -0 -0 -0 -0 -0 0 0 0 0 0 0 -0 -0 0 1 1 1 1 1 1 1 0 -0 -0 -1 -1 -1 -0 -0 -0 -0 -0 -0 -0 -0 0
-0 -0 -1 -1 -1 -1 -1 -1 -0 0 0 1 1 1 1 1 1 1 1 1 1 1 1 1 1 1 1 1 1 1 1 0 0 0 0 0 0 0 0 0 0 0 0 -0 -0 -1 -1 -1 -0 0 1 1 1 1 0 0 -0 -1 -1 -1 -1 -1 -1 -1 -0 0 0 1 1
-1 -1 -1 -1 -1 -0 -0 0 1 1 1 1 1 1 1 1 1 1 1 1 1 1 1 1 1 1 1 1 1 1 1 1 0 0 0 0 0 0 -0 -0 -0 -0 -0 -0 -1 -1 -1 -1 -1 -0 0 1 1 1 1 1 0 0 -0 -0 -1 -0 -0 -0 0 1 1 2 2
-1 -1 -0 -0 0 0 1 1 1 1 1 1 1 1 1 1 1 1 1 1 1 1 1 0 0 1 1 1 1 1 1 1 0 -0 -0 -0 -0 -0 -1 -1 -1 -1 -0 -0 -0 -0 -0 -0 0 1 1 1 1 1 2 2 1 1 1 1 1 1 1 1 1 1 2 2 2
-0 -0 0 1 1 1 1 1 1 1 1 1 1 1 1 1 1 1 1 1 1 1 0 0 -0 0 0 0 0 0 0 1 0 -0 -1 -1 -1 -1 -1 -1 -0 -0 -0 0 0 1 1 1 1 2 2 2 3 3 3 2 2 2 2 2 2 1 1 1 1 1 0 0 0
0 1 1 1 2 2 2 2 1 1 1 1 1 1 1 1 1 0 0 0 0 0 0 -0 -0 -0 -0 -0 -0 -0 -0 -0 0 -0 -0 -0 -0 -0 0 0 0 0 0 0 1 1 1 1 2 2 3 3 4 4 3 3 3 2 2 1 1 0 -0 -0 -1 -1 -2 -2 -2
1 1 2 2 2 2 2 1 1 1 1 1 0 0 0 0 0 0 0 -0 -0 -0 -0 -0 -0 -0 -0 -0 -0 -1 -1 -0 -0 0 0 1 1 1 1 1 1 1 0 0 1 1 1 1 2 2 3 4 4 3 3 2 2 1 1 -0 -0 -1 -2 -2 -2 -3 -3 -3 -3
2 2 2 2 2 1 1 1 0 0 0 0 -0 -0 -0 -0 -0 0 0 0 0 -0 -0 -0 -0 -0 -0 -0 -0 -0 -0 -0 0 1 1 1 1 1 1 1 1 1 0 0 1 1 1 1 1 2 3 3 3 3 2 1 1 0 -0 -0 -0 -1 -1 -2 -2 -3 -3 -3 -3
2 2 2 1 1 0 0 0 -0 -0 -0 -0 -0 -0 -0 -0 -0 0 0 0 0 0 -0 -0 -0 -0 0 1 1 1 1 1 1 0 0 1 1 1 1 1 1 1 0 0 0 1 1 1 1 1 2 2 3 2 2 1 -0 -0 -0 0 0 1 1 0 -0 -1 -2 -2 -3
2 1 1 1 0 -0 -0 -0 -0 -0 -0 -0 0 -0 -0 -0 -0 -0 0 0 0 0 0 0 0 0 1 1 1 2 2 2 1 0 -0 -1 -0 -0 0 0 0 0 -0 -0 -0 -1 -1 -1 -1 -0 0 1 2 2 1 1 0 -0 -0 0 1 2 2 2 1 1 0 -1 -2
1 1 1 0 0 0 0 0 0 0 -0 -0 -0 -0 -0 -0 -0 -0 -0 -0 0 0 0 0 0 0 1 1 1 1 1 1 1 0 -0 -1 -1 -1 -1 -0 -0 -0 -1 -1 -2 -2 -3 -3 -3 -3 -2 -0 0 1 1 0 0 0 0 0 1 1 2 2 2 1 1 0 -0
1 1 1 1 0 0 0 -0 -0 -0 -0 -0 -0 -0 -0 -0 -0 -0 -0 0 0 0 0 1 0 0 0 0 0 -0 -0 -1 -1 -1 -1 -1 -1 -2 -2 -1 -1 -1 -2 -2 -2 -3 -3 -4 -4 -4 -4 -2 -1 -0 0 0 0 0 1 1 0 1 1 2 2 2 1 0 0
1 1 1 1 0 0 -0 -0 -0 -0 -0 -0 -0 -0 -0 -0 0 0 0 0 0 0 0 0 0 -0 -0 -0 -1 -1 -1 -2 -2 -2 -2 -2 -2 -2 -2 -2 -2 -3 -3 -2 -3 -3 -3 -3 -4 -4 -4 -3 -2 -1 -0 0 0 0 1 1 0 0 0 0 0 1 1 1 1
1 1 0 0 0 -0 -0 -0 -0 -0 -0 -0 -0 -0 0 0 0 0 0 0 0 0 -0 -0 -1 -1 -1 -1 -2 -2 -2 -2 -2 -3 -3 -3 -3 -3 -3 -2 -3 -3 -3 -3 -3 -3 -3 -2 -3 -3 -3 -2 -2 -1 -0 -0 0 0 1 0 0 -0 -0 -1 -1 -1 -1 -0 0
0 -0 -0 -0 -0 -0 -0 -0 -0 -0 -0 -0 0 0 0 0 0 0 -0 -0 -0 -0 -0 -1 -1 -1 -2 -2 -2 -2 -2 -3 -2 -3 -3 -3 -4 -4 -4 -3 -3 -3 -4 -3 -3 -3 -2 -2 -2 -2 -1 -1 -1 -0 -0 -0 -0 -0 -0 -0 -1 -1 -1 -1 -2 -2 -2 -2 -1
-0 -0 -0 -0 -0 -0 -0 -0 -0 0 0 0 0 0 0 0 -0 -0 -0 -0 -1 -1 -1 -1 -1 -1 -2 -2 -1 -2 -2 -2 -2 -2 -3 -3 -4 -4 -4 -3 -3 -3 -3 -3 -3 -2 -2 -1 -1 -1 -1 -1 -0 -0 -1 -1 -1 -1 -1 -1 -1 -2 -2 -2 -2 -2 -3 -3 -2
-0 -0 -0 -0 -0 -0 -0 -0 0 0 0 0 0 0 -0 -0 -0 -0 -0 -0 -1 -1 -1 -1 -2 -2 -2 -2 -2 -2 -2 -2 -2 -2 -3 -3 -3 -4 -4 -3 -3 -3 -3 -2 -2 -2 -1 -1 -1 -1 -1 -1 -1 -1 -1 -1 -1 -1 -1 -1 -1 -2 -2 -3 -3 -3 -4 -4 -4
-0 -0 -0 -0 -0 -0 -0 0 0 0 0 0 0 -0 -0 -1 -1 -1 -1 -1 -1 -1 -1 -1 -2 -2 -2 -2 -2 -2 -2 -2 -2 -2 -3 -3 -3 -3 -3 -3 -2 -2 -2 -2 -2 -2 -2 -2 -2 -2 -2 -2 -2 -2 -2 -2 -1 -1 -1 -1 -2 -2 -3 -3 -4 -4 -5 -5 -5
0 0 0 -0 -0 -0 -0 -0 0 0 -0 -0 -0 -0 -0 -0 -1 -1 -1 -1 -1 -1 -1 -1 -1 -1 -1 -1 -1 -1 -2 -3 -2 -2 -2 -3 -3 -3 -3 -3 -2 -2 -1 -2 -2 -2 -3 -3 -3 -3 -2 -2 -2 -1 -1 -1 -1 -1 -1 -1 -2 -3 -4 -4 -5 -5 -6 -6 -6
0 0 0 -0 -0 -0 -0 -0 -0 -0 -0 -0 -0 -0 -0 -0 -0 -1 -1 -2 -1 -1 -1 -1 -1 -1 -1 -1 -1 -1 -1 -2 -3 -2 -2 -2 -2 -2 -2 -3 -3 -3 -3 -3 -3 -4 -4 -4 -4 -3 -3 -2 -1 -1 -0 -0 -0 -1 -1 -1 -2 -4 -4 -5 -5 -6 -6 -6 -6
0 0 -0 -0 -0 0 0 -0 -0 -0 -0 -0 -1 -1 -1 -1 -1 -1 -1 -1 -2 -2 -2 -2 -2 -2 -2 -2 -2 -1 -1 -1 -2 -2 -2 -1 -1 -1 -2 -3 -4 -4 -4 -4 -4 -5 -5 -5 -4 -3 -2 -1 -1 -0 0 0 0 -0 -0 -1 -2 -3 -4 -5 -5 -5 -6 -7 -7
-0 -0 -0 -0 -0 -0 -0 -0 -0 -0 -1 -1 -1 -1 -1 -1 -1 -1 -1 -1 -2 -3 -3 -3 -3 -3 -3 -3 -2 -2 -2 -1 -1 -1 -2 -1 -1 -1 -2 -4 -4 -5 -5 -5 -5 -5 -4 -4 -4 -3 -2 -1 -1 -0 -0 -0 -0 -0 -0 -1 -2 -3 -4 -4 -4 -4 -5 -6 -7
-0 0 0 -0 -0 -0 -0 -0 -0 -0 -1 -1 -1 -1 -1 -1 -1 -1 -1 -1 -1 -2 -3 -4 -3 -3 -3 -3 -3 -3 -2 -1 -0 -0 -1 -2 -1 -1 -1 -3 -4 -5 -4 -4 -4 -4 -4 -4 -4 -3 -2 -1 -1 -1 -0 -0 -0 -1 -1 -1 -1 -2 -3 -4 -4 -4 -4 -4 -5
-0 0 0 -0 -0 -0 -0 -0 -0 -1 -1 -1 -1 -1 -1 -1 -1 -1 -2 -1 -1 -2 -2 -3 -3 -3 -3 -3 -3 -3 -3 -2 -1 -1 -1 -1 -2 -1 -1 -2 -3 -4 -4 -3 -3 -3 -3 -3 -4 -4 -3 -2 -2 -1 -1 -0 -0 -0 -1 -1 -1 -2 -3 -3 -3 -3 -4 -5 -4
-0 -0 0 -0 -0 -1 -1 -1 -1 -1 -1 -1 -1 -2 -2 -1 -1 -2 -2 -2 -1 -2 -2 -2 -2 -3 -2 -2 -2 -2 -3 -3 -3 -2 -2 -2 -2 -2 -1 -1 -2 -3 -3 -3 -2 -3 -3 -3 -4 -4 -4 -3 -3 -3 -2 -1 -1 -1 -1 -1 -0 -1 -2 -3 -2 -2 -1 -3 -4
-0 -0 -0 -0 -0 -1 -1 -1 -1 -1 -1 -0 -1 -1 -2 -1 -2 -2 -2 -2 -2 -2 -1 -1 -2 -2 -2 -1 -1 -1 -2 -4 -4 -4 -3 -2 -3 -2 -1 -1 -1 -2 -3 -3 -2 -3 -3 -4 -4 -5 -5 -4 -4 -4 -4 -2 -2 -1 -1 -1 -1 -0 -0 -1 -2 -1 -1 -0 -1
Height
5704 5704 5704 5704 5704 5704 5704 5704 5704 5704 5703 5703 5703 5702 5702 5701 5701 5701 5700 5700 5699 5699 5699 5698 5698 5698 5697 5697 5697 5697 5697 5697 5696 5696 5696 5696 5696 5695 5695 5695 5694 5694 5694 5693 5693 5692 5691 5691 5690 5689 5689 5688 5687 5686 5685 5684 5684 5683 5682 5681 5680 5679 5678 5677 5677 5676 5674 5674 5673
5703 5703 5703 5703 5703 5703 5703 5703 5703 5702 5702 5701 5701 5701 5700 5700 5699 5699 5699 5699 5698 5698 5698 5697 5697 5697 5696 5696 5696 5696 5696 5696 5695 5695 5695 5694 5694 5694 5694 5693 5693 5692 5692 5691 5691 5690 5690 5689 5689 5688 5687 5686 5685 5684 5684 5683 5682 5681 5680 5679 5678 5677 5676 5675 5674 5674 5672 5671 5670
5701 5701 5701 5702 5702 5702 5701 5701 5701 5701 5700 5700 5699 5699 5699 5699 5699 5698 5698 5698 5697 5697 5697 5696 5696 5696 5696 5695 5695 5695 5695 5694 5694 5694 5694 5693 5693 5693 5692 5692 5691 5691 5690 5690 5689 5689 5688 5687 5687 5686 5685 5684 5684 5683 5681 5680 5679 5679 5678 5677 5676 5675 5674 5673 5672 5671 5670 5669 5668
5699 5700 5700 5700 5700 5700 5700 5700 5699 5699 5699 5699 5699 5698 5698 5698 5698 5697 5697 5697 5696 5696 5696 5695 5695 5695 5695 5694 5694 5694 5694 5693 5693 5693 5692 5692 5692 5691 5691 5690 5690 5689 5689 5688 5688 5687 5686 5685 5684 5684 5683 5682 5681 5680 5679 5678 5677 5676 5675 5674 5673 5672 5671 5670 5669 5668 5667 5666 5665
5698 5699 5699 5699 5699 5699 5699 5699 5698 5698 5698 5698 5698 5698 5697 5697 5697 5696 5696 5696 5695 5695 5695 5694 5694 5694 5694 5693 5693 5693 5692 5692 5692 5691 5691 5690 5690 5690 5689 5689 5688 5688 5687 5686 5685 5685 5684 5683 5682 5682 5681 5680 5679 5678 5677 5676 5675 5674 5673 5672 5670 5669 5668 5667 5666 5665 5664 5663 5661
5697 5697 5698 5698 5698 5698 5698 5698 5698 5698 5697 5697 5697 5697 5697 5696 5696 5696 5695 5695 5694 5694 5694 5694 5693 5693 5692 5692 5692 5691 5691 5691 5690 5690 5689 5689 5689 5688 5688 5687 5686 5686 5685 5684 5684 5683 5682 5681 5680 5679 5678 5677 5676 5675 5674 5673 5672 5671 5670 5669 5668 5667 5665 5664 5663 5662 5660 5659 5658
5696 5696 5696 5697 5697 5697 5697 5697 5697 5697 5697 5697 5697 5696 5696 5696 5695 5695 5694 5694 5694 5693 5693 5692 5692 5691 5691 5691 5690 5690 5689 5689 5689 5688 5688 5687 5687 5686 5686 5685 5684 5684 5683 5682 5681 5680 5680 5679 5678 5677 5676 5675 5674 5673 5672 5671 5669 5669 5667 5666 5665 5664 5663 5661 5660 5659 5657 5656 5655
5695 5695 5696 5696 5696 5696 5696 5696 5696 5696 5696 5696 5696 5695 5695 5695 5694 5694 5693 5693 5692 5692 5691 5691 5690 5690 5690 5689 5689 5689 5688 5688 5687 5687 5686 5685 5685 5684 5684 5683 5682 5682 5681 5680 5679 5679 5678 5677 5676 5675 5674 5673 5671 5670 5669 5668 5667 5666 5664 5664 5662 5661 5659 5658 5657 5656 5654 5653 5652
5694 5695 5695 5695 5695 5695 5696 5696 5696 5695 5695 5695 5695 5694 5694 5694 5693 5693 5692 5692 5691 5691 5690 5690 5689 5689 5689 5688 5688 5687 5686 5686 5685 5685 5684 5684 5683 5683 5682 5681 5680 5679 5679 5678 5677 5676 5675 5674 5673 5672 5671 5670 5669 5668 5667 5665 5664 5663 5662 5661 5659 5658 5657 5655 5654 5653 5651 5650 5648
5694 5694 5694 5694 5695 5695 5695 5695 5695 5694 5694 5694 5694 5693 5693 5692 5692 5691 5691 5690 5690 5689 5689 5689 5688 5688 5687 5686 5686 5685 5685 5684 5684 5683 5683 5682 5681 5681 5680 5679 5678 5677 5677 5676 5675 5674 5673 5672 5671 5670 5669 5668 5667 5665 5664 5663 5662 5660 5659 5658 5656 5655 5654 5652 5651 5649 5648 5647 5645
5693 5694 5694 5694 5694 5694 5694 5694 5694 5693 5693 5693 5692 5692 5692 5691 5691 5690 5690 5689 5689 5688 5688 5687 5687 5686 5685 5685 5684 5684 5683 5683 5682 5681 5681 5680 5679 5679 5678 5677 5676 5675 5674 5674 5673 5671 5670 5669 5669 5667 5666 5665 5664 5663 5661 5660 5659 5658 5656 5655 5654 5652 5650 5649 5648 5646 5645 5643 5642
5693 5693 5693 5693 5693 5693 5693 5693 5693 5692 5692 5691 5691 5691 5690 5690 5689 5689 5688 5688 5687 5687 5686 5686 5685 5684 5684 5683 5683 5682 5682 5681 5680 5679 5679 5678 5677 5677 5676 5675 5674 5673 5672 5671 5670 5669 5668 5667 5666 5665 5664 5663 5661 5660 5659 5657 5656 5655 5653 5652 5650 5649 5647 5646 5644 5643 5641 5639 5638
5692 5692 5692 5692 5692 5692 5692 5691 5691 5691 5690 5690 5690 5689 5689 5688 5688 5687 5687 5686 5686 5685 5685 5684 5684 5683 5682 5682 5681 5680 5680 5679 5679 5678 5677 5676 5675 5674 5674 5673 5672 5671 5670 5669 5668 5667 5666 5665 5664 5663 5661 5660 5659 5657 5656 5654 5653 5652 5650 5649 5647 5646 5644 5643 5641 5639 5638 5636 5634
5691 5691 5691 5691 5691 5691 5690 5690 5690 5689 5689 5689 5688 5688 5687 5687 5686 5686 5685 5685 5684 5684 5683 5683 5682 5681 5681 5680 5679 5679 5678 5678 5677 5676 5675 5674 5674 5673 5672 5671 5670 5669 5668 5667 5666 5665 5664 5663 5661 5660 5659 5657 5656 5655 5653 5652 5650 5649 5647 5646 5644 5643 5641 5639 5638 5636 5634 5632 5630
5690 5690 5690 5690 5689 5689 5689 5689 5689 5688 5688 5688 5687 5686 5686 5685 5685 5684 5684 5683 5683 5682 5682 5681 5681 5680 5679 5679 5678 5677 5677 5676 5675 5674 5674 5673 5672 5671 5670 5669 5668 5667 5666 5664 5664 5662 5661 5660 5659 5658 5656 5655 5654 5652 5650 5649 5647 5646 5644 5643 5641 5639 5637 5636 5634 5632 5630 5629 5627
5689 5689 5689 5689 5689 5688 5688 5688 5687 5687 5686 5686 5685 5685 5684 5684 5684 5683 5683 5682 5681 5681 5680 5680 5679 5679 5678 5677 5676 5676 5675 5674 5673 5672 5671 5671 5669 5669 5668 5667 5666 5664 5663 5662 5661 5660 5659 5657 5656 5655 5653 5652 5650 5649 5647 5645 5644 5642 5640 5639 5637 5635 5634 5632 5630 5628 5626 5624 5623
5688 5688 5688 5687 5687 5687 5687 5686 5686 5685 5685 5684 5684 5684 5683 5683 5682 5682 5681 5681 5680 5679 5679 5678 5678 5677 5676 5675 5675 5674 5673 5672 5671 5670 5669 5669 5667 5666 5665 5664 5663 5662 5661 5659 5658 5657 5656 5654 5653 5652 5650 5649 5647 5645 5644 5642 5640 5639 5637 5635 5633 5631 5629 5628 5626 5624 5622 5620 5618
5687 5687 5686 5686 5686 5685 5685 5685 5684 5684 5684 5683 5683 5682 5682 5681 5681 5680 5680 5679 5679 5678 5677 5677 5676 5675 5674 5674 5673 5672 5671 5670 5669 5668 5667 5666 5665 5664 5663 5662 5660 5659 5658 5657 5655 5654 5653 5651 5650 5649 5647 5645 5644 5642 5641 5639 5637 5635 5634 5632 5629 5628 5626 5624 5622 5620 5618 5616 5614
5685 5685 5685 5685 5684 5684 5684 5683 5683 5683 5682 5682 5681 5681 5680 5680 5679 5679 5678 5678 5677 5676 5675 5675 5674 5673 5672 5672 5671 5670 5669 5668 5667 5666 5665 5664 5663 5661 5660 5659 5658 5657 5655 5654 5653 5651 5650 5649 5647 5646 5644 5643 5641 5639 5638 5636 5634 5632 5630 5628 5626 5624 5622 5620 5618 5615 5613 5611 5609
5684 5684 5684 5683 5683 5683 5682 5682 5682 5681 5681 5680 5680 5679 5679 5679 5678 5677 5677 5676 5675 5674 5674 5673 5672 5671 5670 5669 5669 5668 5667 5666 5664 5664 5663 5661 5660 5659 5658 5657 5655 5654 5653 5651 5650 5649 5647 5646 5644 5643 5641 5640 5638 5636 5634 5633 5630 5629 5626 5624 5622 5620 5618 5615 5613 5611 5609 5606 5604
5683 5682 5682 5682 5682 5681 5681 5681 5680 5680 5679 5679 5679 5678 5678 5677 5676 5676 5675 5674 5673 5673 5672 5671 5670 5669 5668 5667 5666 5665 5664 5664 5662 5661 5660 5659 5658 5656 5655 5654 5653 5651 5650 5649 5647 5646 5644 5643 5641 5640 5638 5636 5635 5633 5631 5629 5627 5624 5622 5620 5618 5615 5613 5611 5608 5606 5603 5601 5598
5681 5681 5681 5681 5680 5680 5680 5679 5679 5679 5678 5678 5677 5676 5676 5675 5674 5674 5673 5672 5671 5670 5670 5669 5668 5667 5666 5665 5664 5663 5662 5661 5660 5659 5658 5656 5655 5654 5653 5651 5650 5649 5647 5646 5644 5643 5641 5640 5638 5636 5635 5633 5631 5629 5627 5625 5623 5620 5618 5616 5613 5611 5608 5606 5603 5601 5598 5595 5593
5680 5680 5680 5679 5679 5679 5679 5678 5678 5677 5677 5676 5675 5675 5674 5674 5673 5672 5671 5670 5669 5669 5668 5667 5666 5665 5664 5663 5662 5661 5660 5659 5658 5656 5655 5654 5653 5651 5650 5649 5647 5646 5644 5643 5641 5639 5638 5636 5634 5633 5631 5629 5627 5625 5623 5621 5619 5616 5614 5612 5609 5607 5604 5601 5599 5596 5593 5590 5588
5679 5679 5679 5679 5678 5678 5677 5677 5676 5676 5675 5674 5674 5673 5672 5672 5671 5670 5669 5669 5668 5667 5666 5665 5664 5663 5662 5661 5660 5659 5658 5656 5655 5654 5652 5651 5650 5648 5647 5645 5644 5642 5641 5639 5637 5636 5634 5632 5630 5629 5627 5625 5623 5621 5619 5617 5614 5612 5610 5607 5605 5603 5600 5597 5594 5591 5589 5585 5583
5678 5678 5678 5677 5677 5676 5676 5675 5674 5674 5674 5673 5672 5671 5670 5670 5669 5668 5667 5667 5666 5665 5664 5663 5662 5661 5660 5659 5657 5656 5655 5654 5652 5651 5649 5648 5647 5645 5644 5642 5640 5639 5637 5635 5634 5632 5630 5628 5626 5624 5623 5621 5619 5617 5615 5612 5610 5608 5605 5603 5601 5598 5596 5593 5590 5587 5584 5581 5578
5677 5676 5676 5676 5675 5675 5674 5674 5673 5672 5672 5671 5670 5669 5669 5668 5667 5666 5665 5664 5664 5663 5662 5660 5659 5658 5657 5656 5655 5654 5652 5651 5649 5648 5646 5645 5644 5642 5640 5639 5637 5635 5634 5632 5630 5628 5626 5624 5622 5620 5619 5617 5615 5613 5610 5608 5606 5603 5601 5599 5596 5594 5591 5589 5586 5583 5579 5576 5573
5675 5675 5674 5674 5674 5673 5673 5672 5671 5670 5670 5669 5669 5668 5667 5666 5665 5664 5663 5662 5661 5660 5659 5658 5657 5656 5654 5653 5652 5651 5649 5648 5646 5645 5643 5642 5640 5639 5637 5635 5633 5632 5630 5628 5626 5624 5622 5620 5618 5616 5614 5612 5610 5608 5606 5604 5602 5599 5597 5594 5592 5589 5586 5584 5581 5578 5575 5572 5568
5674 5674 5673 5673 5672 5671 5671 5670 5669 5669 5668 5667 5667 5666 5665 5664 5663 5662 5661 5660 5659 5658 5657 5655 5654 5653 5652 5650 5649 5648 5646 5644 5643 5641 5640 5638 5637 5635 5633 5632 5630 5628 5626 5624 5623 5621 5619 5617 5614 5612 5610 5608 5606 5604 5602 5599 5597 5595 5592 5589 5587 5584 5582 5579 5576 5573 5570 5567 5564
5672 5672 5671 5671 5670 5670 5669 5669 5668 5667 5666 5665 5664 5664 5663 5662 5661 5660 5659 5658 5657 5655 5654 5653 5652 5650 5649 5648 5646 5644 5643 5641 5640 5638 5636 5635 5633 5632 5630 5628 5626 5624 5623 5621 5619 5617 5615 5613 5611 5609 5607 5604 5602 5600 5598 5595 5593 5590 5588 5585 5582 5579 5577 5574 5571 5568 5565 5562 5559
5671 5670 5670 5669 5669 5668 5667 5667 5666 5665 5664 5663 5662 5661 5660 5659 5659 5658 5656 5655 5654 5653 5652 5650 5649 5648 5646 5645 5643 5642 5640 5638 5637 5635 5633 5632 5630 5629 5627 5625 5623 5621 5619 5617 5615 5614 5611 5609 5607 5605 5603 5600 5598 5596 5593 5591 5588 5586 5583 5580 5578 5574 5572 5569 5566 5563 5559 5556 5553
5669 5669 5668 5668 5667 5666 5665 5664 5664 5663 5662 5661 5660 5659 5658 5657 5656 5655 5654 5653 5652 5650 5649 5648 5646 5645 5644 5642 5640 5639 5637 5635 5634 5632 5630 5629 5627 5625 5624 5622 5620 5618 5616 5614 5612 5610 5608 5606 5604 5601 5599 5597 5594 5592 5589 5587 5584 5581 5579 5576 5573 5570 5567 5564 5560 5557 5554 5550 5547
5667 5667 5666 5666 5665 5664 5664 5663 5662 5661 5660 5659 5658 5657 5656 5655 5654 5653 5651 5650 5649 5648 5646 5645 5644 5642 5640 5639 5637 5636 5634 5633 5631 5629 5628 5626 5624 5622 5620 5619 5616 5614 5612 5610 5608 5606 5604 5602 5600 5597 5595 5593 5590 5588 5585 5582 5579 5577 5574 5571 5568 5564 5561 5558 5555 5551 5548 5544 5541
5665 5665 5664 5664 5663 5662 5661 5660 5659 5659 5658 5657 5656 5655 5654 5653 5651 5650 5649 5648 5646 5645 5644 5642 5641 5639 5638 5636 5635 5633 5632 5630 5628 5626 5625 5623 5621 5619 5617 5615 5613 5611 5609 5607 5604 5602 5600 5598 5596 5594 5591 5589 5586 5584 5581 5578 5575 5572 5569 5566 5563 5559 5556 5552 5549 5545 5542 5538 5534
5663 5663 5662 5662 5661 5660 5659 5658 5657 5656 5655 5654 5654 5653 5651 5650 5649 5648 5646 5645 5644 5642 5641 5639 5638 5636 5635 5634 5632 5630 5629 5627 5625 5624 5622 5620 5618 5616 5614 5612 5609 5607 5605 5603 5601 5599 5596 5594 5592 5590 5588 5585 5582 5579 5577 5574 5571 5568 5564 5561 5558 5554 5550 5547 5543 5539 5535 5532 5528
5661 5661 5660 5659 5659 5658 5657 5656 5655 5654 5653 5652 5651 5650 5649 5648 5646 5645 5644 5642 5641 5639 5638 5637 5635 5634 5632 5631 5629 5628 5626 5624 5622 5620 5619 5617 5614 5612 5610 5608 5606 5604 5602 5599 5597 5595 5593 5590 5588 5586 5584 5581 5578 5575 5572 5569 5566 5563 5559 5556 5552 5549 5545 5541 5537 5533 5529 5525 5521
5659 5659 5658 5658 5657 5656 5655 5654 5653 5652 5651 5650 5649 5648 5646 5645 5644 5642 5641 5639 5638 5637 5635 5634 5632 5631 5629 5628 5626 5625 5623 5621 5619 5617 5615 5613 5611 5609 5607 5604 5602 5600 5598 5596 5593 5591 5589 5586 5584 5582 5579 5576 5574 5571 5568 5565 5562 5559 5555 5551 5548 5544 5540 5536 5532 5528 5523 5519 5515
5657 5657 5656 5655 5654 5654 5653 5652 5651 5650 5649 5648 5646 5645 5644 5643 5641 5640 5638 5637 5635 5634 5633 5631 5629 5628 5627 5625 5623 5622 5620 5618 5616 5614 5612 5610 5608 5606 5603 5601 5599 5596 5594 5592 5589 5587 5584 5582 5580 5578 5575 5572 5569 5567 5564 5560 5557 5554 5550 5547 5543 5539 5535 5531 5527 5522 5518 5513 5509
5655 5654 5654 5653 5652 5651 5650 5649 5649 5647 5646 5645 5644 5643 5641 5640 5639 5637 5636 5634 5633 5631 5630 5629 5627 5625 5624 5622 5620 5618 5617 5615 5613 5611 5609 5607 5604 5602 5600 5598 5595 5593 5590 5588 5585 5583 5580 5578 5575 5573 5570 5568 5565 5562 5559 5556 5553 5549 5546 5542 5538 5534 5530 5526 5521 5517 5512 5508 5503
5653 5652 5652 5651 5650 5649 5648 5647 5646 5645 5644 5643 5641 5640 5639 5637 5636 5634 5633 5632 5630 5629 5627 5626 5624 5622 5620 5619 5617 5615 5613 5611 5609 5607 5605 5603 5601 5599 5597 5594 5592 5589 5587 5584 5581 5579 5576 5574 5571 5568 5566 5563 5560 5557 5554 5552 5549 5545 5541 5538 5534 5529 5525 5521 5517 5512 5507 5502 5498
5651 5650 5649 5649 5648 5647 5646 5645 5644 5642 5641 5640 5639 5637 5636 5634 5633 5632 5630 5629 5627 5626 5624 5623 5621 5619 5617 5615 5614 5612 5610 5608 5606 5604 5602 5600 5598 5595 5593 5590 5588 5585 5583 5580 5577 5574 5572 5569 5566 5564 5561 5558 5555 5553 5550 5547 5544 5541 5537 5533 5529 5525 5521 5516 5512 5508 5503 5498 5493
5648 5648 5647 5646 5645 5644 5643 5642 5641 5640 5639 5637 5636 5634 5633 5632 5630 5629 5628 5626 5624 5623 5621 5620 5618 5616 5614 5613 5610 5609 5607 5604 5603 5600 5598 5596 5594 5592 5589 5587 5584 5581 5579 5576 5573 5570 5567 5564 5562 5559 5556 5553 5550 5548 5545 5542 5539 5536 5532 5529 5525 5521 5517 5513 5508 5503 5498 5494 5488